Weather History for Massena, NY

Change the Weather History Date:

Monday, January 28, 2013

  Actual Average Record
Temperature  
Mean Temperature 18 °F 14 °F  
Max Temperature 22 °F 25 °F 50 °F (1994)
Min Temperature 13 °F 4 °F -29 °F (2003)
Degree Days  
Heating Degree Days 47 51  
Month to date heating degree days 1326 1415  
Since 1 July heating degree days 4112 4514  
Moisture  
Dew Point 15 °F    
Average Humidity 73    
Maximum Humidity 92    
Minimum Humidity 54    
Precipitation  
Precipitation 0.15 in 0.07 in 0.34 in (1953)
Month to date precipitation 0.74 2.00  
Year to date precipitation 0.74 2.00  
Sea Level Pressure  
Sea Level Pressure 30.09 in    
Wind  
Wind Speed 7 mph (ENE)    
Max Wind Speed 14 mph    
Max Gust Speed 18 mph    
Visibility 3 miles    
Events Fog , Snow    
T = Trace of Precipitation, MM = Missing Value Source: NWS Daily Summary

Daily Weather History Graph

Daily Weather History Graph

Search for Another Location

Airport:

Trip Planner

Search our weather history database for the weather conditions in past years. The results will help you decide how hot, cold, wet, or windy it might be!

Date:

Astronomy

Jan. 28, 2013 Rise Set
Actual Time 7:23 AM EST 5:02 PM EST
Civil Twilight 6:51 AM EST 5:33 PM EST
Nautical Twilight 6:16 AM EST 6:09 PM EST
Astronomical Twilight 5:41 AM EST 6:43 PM EST
Moon 7:01 PM EST (1/28) 7:41 AM EST (1/28)
Length of Visible Light 10h 42m
Length of Day
9h 39m
Full, 98% of the Moon is Illuminated
Jan 28
Full
Feb 3
Last Quarter
Feb 10
New
Feb 17
First Quarter
Feb 25
Full

Hourly Weather History & Observations

Time (EST) Temp. Windchill Dew Point Humidity Pressure Visibility Wind Dir Wind Speed Gust Speed Precip Events Conditions
12:53 AM 12.9 °F - 3.9 °F 67% 30.48 in 10.0 mi Calm Calm - N/A   Overcast
1:53 AM 14.0 °F - 3.9 °F 64% 30.45 in 10.0 mi Calm Calm - N/A   Overcast
2:53 AM 16.0 °F - 5.0 °F 62% 30.44 in 10.0 mi Calm Calm - N/A   Overcast
3:53 AM 16.0 °F 7.4 °F 5.0 °F 62% 30.41 in 10.0 mi NE 5.8 mph - N/A   Overcast
4:53 AM 17.1 °F 11.7 °F 5.0 °F 59% 30.39 in 10.0 mi ENE 3.5 mph - N/A   Overcast
5:53 AM 17.1 °F 11.7 °F 6.1 °F 62% 30.36 in 10.0 mi ENE 3.5 mph - N/A   Overcast
6:53 AM 18.0 °F 11.1 °F 6.1 °F 60% 30.35 in 10.0 mi ENE 4.6 mph - N/A   Overcast
7:53 AM 18.0 °F 12.7 °F 3.9 °F 54% 30.34 in 10.0 mi East 3.5 mph - N/A   Overcast
8:53 AM 18.0 °F 11.1 °F 3.9 °F 54% 30.30 in 2.0 mi East 4.6 mph - 0.00 in Snow Light Snow
8:58 AM 17.6 °F 9.3 °F 5.0 °F 58% 30.27 in 1.2 mi ENE 5.8 mph - 0.00 in Snow Light Snow
9:34 AM 17.6 °F 7.3 °F 8.6 °F 68% 30.25 in 1.8 mi ENE 8.1 mph - 0.00 in Snow Light Snow
9:53 AM 18.0 °F 8.7 °F 10.0 °F 71% 30.27 in 1.2 mi ENE 6.9 mph - 0.00 in Snow Light Snow
10:14 AM 17.6 °F 9.3 °F 12.2 °F 79% 30.22 in 0.8 mi ENE 5.8 mph - 0.00 in Snow Light Snow
10:53 AM 19.0 °F 8.2 °F 14.0 °F 81% 30.23 in 1.0 mi ENE 9.2 mph - 0.01 in Snow Light Snow
11:09 AM 19.4 °F 9.5 °F 15.8 °F 86% 30.18 in 0.8 mi ENE 8.1 mph - 0.00 in Snow Light Snow
11:53 AM 19.9 °F 9.3 °F 15.1 °F 81% 30.16 in 0.5 mi NE 9.2 mph - 0.01 in Snow Snow
12:33 PM 19.4 °F 7.9 °F 15.8 °F 86% 30.10 in 0.2 mi ENE 10.4 mph - 0.01 in Fog , Snow Snow
12:53 PM 19.9 °F 9.3 °F 17.1 °F 89% 30.11 in 0.2 mi ENE 9.2 mph - 0.02 in Fog , Snow Snow
1:00 PM 19.4 °F 9.5 °F 15.8 °F 86% 30.07 in 0.5 mi ENE 8.1 mph - 0.00 in Fog , Snow Snow
1:17 PM 19.4 °F 7.2 °F 15.8 °F 86% 30.06 in 0.2 mi ENE 11.5 mph - 0.01 in Fog , Snow Heavy Snow
1:53 PM 19.9 °F 7.9 °F 16.0 °F 85% 30.07 in 0.2 mi ENE 11.5 mph - 0.04 in Fog , Snow Snow
2:34 PM 19.4 °F 6.6 °F 17.6 °F 93% 30.02 in 0.5 mi ENE 12.7 mph - 0.03 in Fog , Snow Snow
2:42 PM 19.4 °F 7.2 °F 17.6 °F 93% 30.01 in 0.8 mi ENE 11.5 mph - 0.03 in Snow Light Snow
2:53 PM 19.9 °F 8.6 °F 17.1 °F 89% 30.05 in 0.5 mi ENE 10.4 mph - 0.03 in Fog , Snow Snow
3:13 PM 21.2 °F 10.1 °F 17.6 °F 86% 30.01 in 1.2 mi ENE 10.4 mph - 0.00 in Snow Light Snow
3:43 PM 21.2 °F 11.7 °F 17.6 °F 86% 30.01 in 0.8 mi ENE 8.1 mph - 0.01 in Snow Light Snow
3:50 PM 21.2 °F 10.9 °F 17.6 °F 86% 30.00 in 1.0 mi ENE 9.2 mph - 0.01 in Snow Light Snow
3:53 PM 21.9 °F 12.5 °F 18.0 °F 85% 30.03 in 1.2 mi ENE 8.1 mph - 0.01 in Snow Light Snow
4:01 PM 21.2 °F 10.1 °F 17.6 °F 86% 30.00 in 1.8 mi NE 10.4 mph - 0.00 in Snow Light Snow
4:07 PM 21.2 °F 11.7 °F 17.6 °F 86% 30.00 in 3.0 mi ENE 8.1 mph - 0.00 in Snow Light Snow
4:19 PM 21.2 °F 10.1 °F 17.6 °F 86% 30.00 in 1.8 mi ENE 10.4 mph - 0.00 in Snow Light Snow
4:28 PM 21.2 °F 11.7 °F 17.6 °F 86% 30.00 in 1.0 mi ENE 8.1 mph - 0.00 in Snow Light Snow
4:40 PM 21.2 °F 10.1 °F 19.4 °F 93% 29.98 in 0.8 mi ENE 10.4 mph - 0.00 in Snow Light Snow
4:53 PM 21.9 °F 11.7 °F 19.0 °F 89% 30.00 in 1.0 mi ENE 9.2 mph - 0.00 in Snow Light Snow
5:12 PM 21.2 °F 13.6 °F 19.4 °F 93% 29.99 in 2.0 mi NE 5.8 mph - 0.00 in Snow Light Snow
5:28 PM 21.2 °F 11.7 °F 19.4 °F 93% 29.99 in 2.5 mi NE 8.1 mph - 0.00 in Snow Light Snow
5:38 PM 21.2 °F 12.6 °F 19.4 °F 93% 29.98 in 3.0 mi NE 6.9 mph - 0.00 in Snow Light Snow
5:53 PM 21.9 °F 12.5 °F 19.0 °F 89% 30.01 in 2.5 mi NE 8.1 mph - 0.00 in Snow Light Snow
5:56 PM 21.2 °F 12.6 °F 19.4 °F 93% 29.99 in 1.8 mi NNE 6.9 mph - 0.00 in Snow Light Snow
6:05 PM 21.2 °F 11.7 °F 19.4 °F 93% 29.98 in 1.0 mi NE 8.1 mph - 0.01 in Snow Light Snow
6:19 PM 21.2 °F 10.9 °F 19.4 °F 93% 29.98 in 1.0 mi ENE 9.2 mph - 0.01 in Snow Light Snow
6:26 PM 21.2 °F 11.7 °F 19.4 °F 93% 29.98 in 0.8 mi NE 8.1 mph - 0.02 in Snow Light Snow
6:38 PM 21.2 °F 11.7 °F 19.4 °F 93% 29.98 in 1.2 mi NE 8.1 mph - 0.02 in Snow Light Snow
6:42 PM 21.2 °F 10.9 °F 19.4 °F 93% 29.98 in 1.5 mi NE 9.2 mph - 0.02 in Snow Light Snow
6:53 PM 21.9 °F 12.5 °F 19.0 °F 89% 30.01 in 1.8 mi NE 8.1 mph - 0.02 in Snow Light Snow
7:11 PM 21.2 °F 10.1 °F 19.4 °F 93% 29.98 in 2.5 mi ENE 10.4 mph - 0.00 in Snow Light Snow
7:23 PM 21.2 °F 9.5 °F 19.4 °F 93% 29.98 in 1.5 mi NE 11.5 mph - 0.00 in Snow Light Snow
7:53 PM 21.9 °F 9.8 °F 19.0 °F 89% 30.00 in 2.0 mi ENE 12.7 mph - 0.00 in Snow Light Snow
8:04 PM 21.2 °F 9.5 °F 17.6 °F 86% 29.98 in 3.0 mi NNE 11.5 mph - 0.00 in Snow Light Snow
8:39 PM 19.4 °F 8.6 °F 15.8 °F 86% 29.99 in 2.5 mi NE 9.2 mph - 0.00 in Snow Light Snow
8:53 PM 19.0 °F 6.8 °F 15.1 °F 85% 30.01 in 2.0 mi NE 11.5 mph - 0.00 in Snow Light Snow
8:57 PM 19.4 °F 7.9 °F 15.8 °F 86% 29.99 in 1.2 mi NE 10.4 mph - 0.00 in Snow Light Snow
9:28 PM 17.6 °F 3.7 °F 14.0 °F 86% 30.00 in 1.8 mi NE 13.8 mph - 0.00 in Snow Light Snow
9:43 PM 17.6 °F 4.3 °F 14.0 °F 86% 30.00 in 2.0 mi NE 12.7 mph - 0.01 in Snow Light Snow
9:51 PM 17.6 °F 6.4 °F 14.0 °F 86% 30.00 in 3.0 mi NE 9.2 mph - 0.01 in Snow Light Snow
9:53 PM 18.0 °F 6.9 °F 14.0 °F 84% 30.03 in 3.0 mi NE 9.2 mph - 0.01 in Snow Light Snow
10:02 PM 17.6 °F 7.3 °F 14.0 °F 86% 30.01 in 5.0 mi NE 8.1 mph - 0.00 in Snow Light Snow
10:53 PM 18.0 °F 6.9 °F 14.0 °F 84% 30.04 in 6.0 mi ENE 9.2 mph - 0.00 in   Overcast
11:53 PM 18.0 °F 7.7 °F 14.0 °F 84% 30.06 in 9.0 mi NE 8.1 mph - N/A   Overcast